Regional Weather Roundup
Issued by NWS

Home | Current Version | Previous Version | Text Only | Print | Product List | Glossary On
Versions: 1 2 3 4 5 6 7 8 9 10 11 12 13 14 15 16 17 18 19 20 21 22 23 24 25 26 27 28 29 30 31 32 33 34 35 36 37 38 39 40 41 42 43 44 45 46 47 48 49 50
000
ASUS44 KLUB 051410
RWRTX
WEST TEXAS WEATHER ROUNDUP
NATIONAL WEATHER SERVICE LUBBOCK TX
900 AM CDT THU MAY 05 2016

NOTE: "FAIR" INDICATES FEW OR NO CLOUDS BELOW 12,000 FEET WITH NO
SIGNIFICANT WEATHER AND/OR OBSTRUCTIONS TO VISIBILITY.

TXZ004-006>008-010-012-014-016-OKZ002-051500-
TEXAS PANHANDLE/OKLAHOMA PANHANDLE

CITY           SKY/WX    TMP DP  RH WIND       PRES   REMARKS
AMARILLO       SUNNY     61  37  41 S6        30.17S
BORGER         SUNNY     60  45  57 VRB3      30.16R
CANADIAN       SUNNY     55  50  84 CALM      30.16R
DALHART        SUNNY     60  44  55 S5        30.17R
DUMAS          SUNNY     59  46  61 S6        30.15F
GUYMON         SUNNY     59  46  62 S5        30.12F
HEREFORD       SUNNY     55  42  62 N9        30.18R
PAMPA          SUNNY     64  49  59 S10       30.17S
PERRYTON       SUNNY     62  51  67 S8        30.16R
$$

TXZ026-029-035-045-048-051500-
SOUTHERN PANHANDLE/SOUTH PLAINS/ROLLING PLAINS

CITY           SKY/WX    TMP DP  RH WIND       PRES   REMARKS
CHILDRESS      SUNNY     65  46  50 SE10      30.14R
SEMINOLE       SUNNY     64  35  34 CALM      30.18R
LUBBOCK        MOSUNNY   69  34  27 SW9       30.16R
PLAINVIEW      SUNNY     61  48  60 SW3       30.15R
SNYDER           N/A     63  44  51 W3        30.14R
$$

TXZ052-054-060>062-072-078-127-140-154-169-051500-
PERMIAN BASIN/CONCHO VALLEY/BIG COUNTRY/EDWARDS PLATEAU

CITY           SKY/WX    TMP DP  RH WIND       PRES   REMARKS
ABILENE        SUNNY     65  49  56 NE5       30.13R
BIG SPRING     MOSUNNY   60  38  44 S3        30.17S
BROWNWOOD      SUNNY     63  54  72 N5        30.13R
JUNCTION       SUNNY     53  43  68 CALM      30.13R
MIDLAND        SUNNY     67  35  30 CALM      30.16R
ODESSA         MOSUNNY   68  34  28 CALM      30.17R
SAN ANGELO     SUNNY     61  45  55 W3        30.12R
SONORA         SUNNY     59  43  55 CALM      30.18R
SWEETWATER     SUNNY     70  42  37 SW6       30.16R
WINK           CLOUDY    63  34  33 CALM      30.13R
$$

TXZ055-058-074-075-080-082-051500-
FAR WEST/SOUTHWEST MOUNTAINS/TRANS PECOS

CITY           SKY/WX    TMP DP  RH WIND       PRES   REMARKS
ALPINE         MOSUNNY   65  31  27 CALM      30.27R
DRYDEN           N/A     72  35  25 NE6       30.12R
EL PASO        PTSUNNY   69  23  17 N3        30.13R
FORT STOCKTON  MOSUNNY   68  37  32 SW8       30.15R
GUADALUPE PASS CLOUDY    67  26  21 NE12      30.25R
MARFA          CLOUDY    64  31  28 NE5       30.24R
PECOS          CLOUDY    57  27  31 CALM      30.14R
PRESIDIO       FAIR      72  31  22 NE9       30.13R
$$

TXZ014-016-019-021>030-083-051500
TEXAS TECH WEST TEXAS MESONET/TEXAS PANHANDLE/NORTHERN SOUTH PLAINS

CITY           SKY/WX    TMP DP  RH WIND       PRES   REMARKS
ABERNATHY 5ENE   N/A     66  40  38 SW12      30.19R
AMARILLO 9NNE    N/A     61  43  50 SE5       30.17S
AMARILLO 7SSE    N/A     62  43  49 SW2       30.19S
AMHERST 1NE      N/A     63  32  31 SW7       30.18R
BOOTLEG 11WNW    N/A     66  35  31 W6        30.21S
CANADIAN 6E      N/A     60  47  60 SE3       30.15R
CAPROCK CYN SP   N/A     65  42  43 N3        30.17R
CHILDRESS 2NNE   N/A     66  46  48 SE9       30.15S
CLARENDON 2WSW   N/A     65  47  51 SE8       30.17S
CLAUDE 12SW      N/A     66  37  35 S2        30.18R
DIMMITT 2NE      N/A     63  34  33 SW7       30.19R
FLOYDADA 2NNE    N/A     65  40  40 SW2       30.17R
FRIONA 2NE       N/A     60  37  42 SW3       30.19S
GOODLETT 3W      N/A     66  45  46 E7        30.14R
HART 3N          N/A     62  36  37 SW7       30.19R
HEREFORD 2NW     N/A     59  36  42 W1        30.21R
MCLEAN 1E        N/A     65  45  48 SE9       30.17R
MEMPHIS 1NE      N/A     66  47  51 E7        30.16R
MULESHOE 2SSW    N/A     61  33  35 W5        30.19R
OLTON 6S         N/A     60  36  40 SW6       30.18R
PALO DURO SP     N/A     65  42  43 CALM      30.19R
PAMPA 2E         N/A     62  49  62 SE9       30.18R
PLAINVIEW 1S     N/A     64  39  39 S3        30.18R
SILVERTON 7ESE   N/A     66  41  40 SW2       30.16S
TULIA 2ENE       N/A     62  42  46 S5        30.18R
TURKEY 2WSW      N/A     63  46  52 N6        30.16S
UMBARGER 3NNE    N/A     58  41  51 W2        30.19S
$$

TXZ033>036-039>041-045>048-051500
TEXAS TECH WEST TEXAS MESONET/SOUTH PLAINS

CITY           SKY/WX    TMP DP  RH WIND       PRES   REMARKS
AIKEN 3WSW       N/A     66  38  35 SW5       30.19R
ANDREWS 2NE      N/A     70  30  22 S3        30.20R
ANTON 6SSW       N/A     66  33  29 SW7       30.18R
BROWNFIELD 2S    N/A     68  33  26 S9        30.18R
DENVR CTY 7WNW   N/A     66  30  26 S3        30.19R
GAIL 2ESE        N/A     69  37  30 SW10      30.15R
LAMESA 2SE       N/A     64  41  43 SW3       30.18R
LEVELLAND 4S     N/A     65  30  26 SW9       30.18R
LUBBOCK 3WNW     N/A     70  34  26 S7        30.18R
MORTON 1ENE      N/A     66  30  25 SW8       30.18R
ODONNELL 1N      N/A     68  33  27 SW9       30.17R
PLAINS 3N        N/A     66  31  26 S5        30.19S
RALLS 1SE        N/A     69  36  29 SW12      30.18R
REESE CENTER     N/A     67  32  27 SW12      30.18R
SEAGRAVES 1SW    N/A     67  33  28 S6        30.18S
SEMINOLE 2NNE    N/A     65  34  31 SE5       30.18S
SLATON 2NE       N/A     68  33  27 SW13      30.17R
SNYDER 3E        N/A     66  43  43 W2        30.14S
SUNDOWN 8SW      N/A     65  33  29 SW8       30.18R
TAHOKA 3NNE      N/A     68  34  28 SW13      30.17R
WOLFFORTH 6SSW   N/A     67  33  27 S10       30.18R
$$

TXZ031-032-036>038-042>044-051500-
TEXAS TECH WEST TEXAS MESONET/ROLLING PLAINS

CITY           SKY/WX    TMP DP  RH WIND       PRES   REMARKS
ASPERMONT 3NE    N/A     68  44  40 E3        30.14R
FLUVANNA 3WNW    N/A     69  35  28 SW8       30.16R
GRAHAM 5SSW      N/A     66  39  37 W7        30.17R
GUTHRIE 10WSW    N/A     65  42  43 N8        30.13R
HASKELL 1NW      N/A     69  48  47 E5        30.13R
JAYTON 1SSE      N/A     65  43  43 N1        30.14R
KNOX CITY 3NW    N/A     65  49  56 E2        30.13S
LK A HENRY 1NW   N/A     69  40  34 W2        30.15R
NORTHFIELD 1S    N/A     63  47  54 E3        30.15S
ODELL 4ENE       N/A     68  49  50 E5        30.15R
PADUCAH 10SW     N/A     65  47  53 NE3       30.15R
POST 1NE         N/A     71  37  28 SW6       30.15
RRING SPRGS 3N   N/A     67  43  42 N5        30.16R
SEYMOUR 3NW      N/A     68  51  52 E6        30.13R
SPUR 1W          N/A     66  41  41 NW5       30.13S
WEINERT 2NNE     N/A     68  49  50 SE6       30.13S
WHITE RVR 6NE    N/A     68  42  37 W2        30.15R
$$

TXZ052-054-060>062-072-078-127-140-154-169-051500-
TEXAS TECH WEST TEXAS MESONET/PERMIAN BASIN/
CONCHO VALLEY/BIG COUNTRY/EDWARDS PLATEAU

CITY           SKY/WX    TMP DP  RH WIND       PRES   REMARKS
COYANOSA 2N      N/A     67  33  27 NE2       30.16R
JUNCTION 1SSW    N/A     58  45  60 S5        30.15R
MERTZON 3NNE     N/A     65  49  56 S3        30.16R
SAN ANGELO 7NW   N/A     64  46  50 NW3       30.13S
STRLNG CT 4WSW   N/A     59  50  71 W2        30.16S
ST LAWRNCE 5SW   N/A     65  38  35 SE2       30.16S
SWEETWATR 11SW   N/A     69  45  42 SW1       30.16R
WALL 1E          N/A     62  42  47 W7        30.14S
$$

TXZ055-058-074-075-080-082-051500-
TEXAS TECH WEST TEXAS MESONET/FAR WEST/SOUTHWEST MOUNTAINS/TRANS PECOS

CITY           SKY/WX    TMP DP  RH WIND       PRES   REMARKS
PRSMN GAP BBNP   N/A     71  31  22 NE13      30.15R
GUADLPE MTN NP   N/A     67  23  18 E5        30.28R
$$




USA.gov is the U.S. government's official web portal to all federal, state and local government web resources and services.